Maplewood, Minnesota, United States
Lat: 44.95N, Lon: 93W
Wx Zone: MNZ062
Local Info
Past Weather Observations for Wednesday, May 25, 2016

NOTE: This archive is for the closest National Weather Service station to Maplewood. Information may differ from the station used for current weather conditions.

Click here for Long-term Archive

Time Weather Temperature Dewpoint Humidity Pressure Winds Precip Visibility
23:53
Clear
66°F / 19°C 57°F / 14°C 73% 29.92 in
(1013 mb)
Calm - 10SM
22:53
Clear
70°F / 21°C 57°F / 14°C 64% 29.92 in
(1013 mb)
ENE 3.5 mph
(ENE 6 kph)
- 10SM
21:53
Clear
72°F / 22°C 54°F / 12°C 53% 29.92 in
(1013 mb)
SSE 4.6 mph
(SSE 7 kph)
- 10SM
20:53
Clear
73°F / 23°C 54°F / 12°C 50% 29.92 in
(1013 mb)
SE 6.9 mph
(SE 11 kph)
- 10SM
19:53
Clear
75°F / 24°C 54°F / 12°C 47% 29.89 in
(1012 mb)
SE 3.5 mph
(SE 6 kph)
- 10SM
18:53
Clear
79°F / 26°C 54°F / 12°C 42% 29.89 in
(1012 mb)
E 3.5 mph
(E 6 kph)
- 10SM
17:53
Clear
81°F / 27°C 48°F / 9°C 32% 29.89 in
(1012 mb)
NNE 4.6 mph
(NNE 7 kph)
- 10SM
16:53
Clear
82°F / 28°C 52°F / 11°C 35% 29.89 in
(1012 mb)
ENE 9.2 mph
(ENE 15 kph)
- 10SM
15:53
Clear
84°F / 29°C 52°F / 11°C 33% 29.89 in
(1012 mb)
N 9.2 mph
(N 15 kph)
- 10SM
14:53
Partly Cloudy
82°F / 28°C 52°F / 11°C 35% 29.89 in
(1012 mb)
NW 9.2 mph
(NW 15 kph)
- 10SM
13:53
Partly Cloudy
82°F / 28°C 55°F / 13°C 40% 29.89 in
(1012 mb)
Variable 5.8 mph
(Variable 9 kph)
- 10SM
12:53
Clear
81°F / 27°C 57°F / 14°C 45% 29.89 in
(1012 mb)
SW 8.1 mph
(SW 13 kph)
- 10SM
11:53
Partly Cloudy
79°F / 26°C 61°F / 16°C 54% 29.89 in
(1012 mb)
Variable 3.5 mph
(Variable 6 kph)
- 10SM
10:53
Mostly Cloudy
75°F / 24°C 61°F / 16°C 61% 29.89 in
(1012 mb)
NNW 9.2 mph
(NNW 15 kph)
- 10SM
09:53
Partly Cloudy
75°F / 24°C 61°F / 16°C 61% 29.89 in
(1012 mb)
SSW 9.2 mph
(SSW 15 kph)
- 10SM
08:53
Clear
73°F / 23°C 63°F / 17°C 69% 29.86 in
(1011 mb)
SSW 8.1 mph
(SSW 13 kph)
- 10SM
07:53
Clear
72°F / 22°C 63°F / 17°C 73% 29.86 in
(1011 mb)
SSW 9.2 mph
(SSW 15 kph)
- 10SM
06:53
Partly Cloudy
68°F / 20°C 61°F / 16°C 78% 29.83 in
(1010 mb)
Calm - 10SM
05:53
Partly Cloudy
64°F / 18°C 61°F / 16°C 88% 29.83 in
(1010 mb)
SE 4.6 mph
(SE 7 kph)
- 10SM
05:28
Mostly Cloudy
64°F / 18°C 61°F / 16°C 88% 29.83 in
(1010 mb)
SSE 4.6 mph
(SSE 7 kph)
- 10SM
04:53
Overcast
64°F / 18°C 61°F / 16°C 88% 29.83 in
(1010 mb)
SSE 4.6 mph
(SSE 7 kph)
- 10SM
03:53
Mostly Cloudy
66°F / 19°C 61°F / 16°C 83% 29.8 in
(1009 mb)
S 5.8 mph
(S 9 kph)
- 10SM
02:53
Mostly Cloudy
66°F / 19°C 61°F / 16°C 83% 29.8 in
(1009 mb)
S 5.8 mph
(S 9 kph)
- 10SM
01:53
Overcast
66°F / 19°C 61°F / 16°C 83% 29.8 in
(1009 mb)
S 6.9 mph
(S 11 kph)
- 10SM
00:53
Partly Cloudy
64°F / 18°C 63°F / 17°C 94% 29.8 in
(1009 mb)
S 4.6 mph
(S 7 kph)
- 9SM
Time Weather Temperature Dewpoint Humidity Pressure Winds Precip Visibility


Weather for websites

WeatherForYou.com, LLC is not responsible for any damages or problems caused by this service. Current weather conditions are obtained from the closest station including government and personal stations which may have varying degrees of accuracy. Weather forecasts are derived from the NOAA NDFD. Like all things, this site belongs to Jesus Christ... He just trusts us to maintain it. If you have any questions or comments email webmaster@weatherforyou.com

Copyright © 2016, WeatherForYou.com LLC. All rights reserved.